Station MZXC1 - 9415102 - Martinez-Amorco Pier, CA Image indicating link to RSS feed of recent meteorological observations for station MZXC1


Conditions at MZXC1 as of
(8:30 am PST)
1630 GMT on 05/28/2024:
     

Click on the graph icon in the table below to see a time series plot of the last five days of that observation.

5-day plot - Wind Direction Wind Direction (WDIR):WSW ( 240 deg true )
5-day plot - Wind Speed Wind Speed (WSPD): 8.9 kts
5-day plot - Wind Gust Wind Gust (GST): 11.1 kts
5-day plot - Atmospheric Pressure Atmospheric Pressure (PRES):30.03 in
5-day plot - Air Temperature Air Temperature (ATMP): 61.2 °F
5-day plot - Water Temperature Water Temperature (WTMP): 64.0 °F
5-day plot - Wind Speed at 10 Meters Wind Speed at 10 meters (WSPD10M): 9.7 kts
5-day plot - Wind Speed at 20 Meters Wind Speed at 20 meters (WSPD20M): 9.7 kts
5-day plot -  Wind Speed, Wind Gust and Atmospheric Pressure Combined plot of Wind Speed, Gust, and Air Pressure
NOS Water Level Observation Network Water Level
Previous observations
TIME
(PST)
5-day plot - Wind Direction
WDIR
 
5-day plot - Wind Speed
WSPD
kts
5-day plot - Wind Gust
GST
kts
5-day plot - Wave Height
WVHT
ft
5-day plot - Dominant Wave Period
DPD
sec
5-day plot - Average Wave Period
APD
sec
5-day plot - Mean Wave Direction
MWD
 
5-day plot - Atmospheric Pressure
PRES
in
5-day plot - Pressure Tendency
PTDY
in
5-day plot - Air Temperature
ATMP
°F
5-day plot - Water Temperature
WTMP
°F
5-day plot - Dew Point
DEWP
°F
5-day plot - Salinity
SAL
psu
5-day plot - Visibility
VIS
nmi
5-day plot - Tide (above MLLW)
TIDE
ft
2024-05-28 08:24 am W 8.0 11.1----30.03- 60.8 64.0----
2024-05-28 08:18 am W 8.9 11.1----30.03- 60.6 64.0----
2024-05-28 08:12 am W 8.9 13.0----30.03- 60.3 64.0----
2024-05-28 08:06 am W 9.9 12.0----30.03- 60.3 64.0----
2024-05-28 08:00 am W 9.9 12.0----30.03+0.02 60.1 64.0----
2024-05-28 07:54 am W 8.9 12.0----30.03- 59.4 64.0----
2024-05-28 07:48 am W 8.0 12.0----30.03- 59.0 64.0----
2024-05-28 07:42 am W 8.0 11.1----30.03- 59.0 64.0----
2024-05-28 07:36 am W 8.0 9.9----30.03- 59.0 64.0----
2024-05-28 07:30 am W 2.9 5.1----30.03- 58.5 64.0----
2024-05-28 07:24 amWNW 4.1 8.0----30.03- 57.9 64.0----
2024-05-28 07:18 amWNW 4.1 9.9----30.03- 57.9 64.0----
2024-05-28 07:12 am W 6.0 9.9----30.03- 57.4 64.0----
2024-05-28 07:06 am W 8.0 9.9----30.03- 56.8 64.0----
2024-05-28 07:00 am W 6.0 8.0----30.03+0.02 56.8 64.0----
2024-05-28 06:54 amWNW 6.0 8.0----30.03- 56.5 64.0----
2024-05-28 06:48 am W 6.0 8.0----30.03- 56.1 63.9----
2024-05-28 06:42 am W 6.0 7.0----30.03- 55.6 63.9----
2024-05-28 06:36 am W 6.0 8.9----30.03- 55.6 63.9----
2024-05-28 06:30 am W 8.0 9.9----30.02- 55.2 63.9----
2024-05-28 06:24 am W 8.0 9.9----30.03- 55.2 63.9----
2024-05-28 06:18 am W 8.9 13.0----30.02- 54.9 63.9----
2024-05-28 06:12 am W 8.0 11.1----30.02- 54.7 63.7----
2024-05-28 06:06 am W 8.0 9.9----30.02- 54.7 63.7----
2024-05-28 06:00 am W 8.0 9.9----30.02+0.02 54.1 63.7----
2024-05-28 05:54 am W 8.0 12.0----30.02- 54.3 63.7----
2024-05-28 05:48 am W 9.9 13.0----30.02- 54.3 63.7----
2024-05-28 05:42 am W 8.0 12.0----30.02- 54.1 63.7----
2024-05-28 05:36 am W 8.0 9.9----30.02- 54.1 63.7----
2024-05-28 05:30 amWSW 5.1 8.9----30.02- 54.0 63.7----
2024-05-28 05:24 am W 7.0 8.0----30.02- 54.1 63.9----
2024-05-28 05:18 am W 7.0 9.9----30.02- 53.8 63.9----
2024-05-28 05:12 am W 7.0 9.9----30.02- 54.0 63.9----
2024-05-28 05:06 amWSW 5.1 8.9----30.02- 54.0 63.9----
2024-05-28 05:00 am W 7.0 8.9----30.02+0.00 54.0 64.0----
2024-05-28 04:54 am W 8.9 14.0----30.02- 54.0 64.0----
2024-05-28 04:48 am W 7.0 9.9----30.01- 54.3 64.2----
2024-05-28 04:42 am W 6.0 8.0----30.01- 54.3 64.2----
2024-05-28 04:36 am W 7.0 8.0----30.01- 54.1 64.2----
2024-05-28 04:30 amWSW 6.0 8.0----30.01- 54.1 64.2----
2024-05-28 04:24 amWSW 6.0 8.0----30.01- 54.3 64.2----
2024-05-28 04:18 am W 6.0 8.0----30.01- 54.1 64.2----
2024-05-28 04:12 amWSW 4.1 6.0----30.01- 54.3 64.2----
2024-05-28 04:06 am W 4.1 8.0----30.01- 54.3 64.2----
2024-05-28 04:00 am W 5.1 7.0----30.01+0.00 54.7 64.2----
2024-05-28 03:54 am W 6.0 8.0----30.01- 54.3 64.4----
2024-05-28 03:48 am W 6.0 8.0----30.01- 54.3 64.4----
2024-05-28 03:42 am W 7.0 8.0----30.01- 54.1 64.4----
2024-05-28 03:36 am W 5.1 7.0----30.01- 54.3 64.4----
2024-05-28 03:30 am W 4.1 5.1----30.01- 54.3 64.4----
2024-05-28 03:24 am SW 5.1 7.0----30.01- 54.5 64.2----
2024-05-28 03:18 am SW 5.1 6.0----30.01- 54.3 64.2----
2024-05-28 03:12 amWSW 5.1 8.0----30.01- 54.1 64.2----
2024-05-28 03:06 am SW 6.0 8.0----30.01- 54.3 64.2----
2024-05-28 03:00 amWSW 7.0 8.0----30.01-0.01 54.3 64.0----
2024-05-28 02:54 am SW 6.0 8.0----30.01- 54.3 64.0----
2024-05-28 02:48 am SW 5.1 8.0----30.01- 54.5 64.0----
2024-05-28 02:42 amWSW 7.0 9.9----30.01- 54.3 64.0----
2024-05-28 02:36 am SW 8.0 9.9----30.01- 54.3 64.0----
2024-05-28 02:30 am W 8.0 9.9----30.01- 54.3 64.0----
2024-05-28 02:24 am W 7.0 9.9----30.01- 54.3 64.0----
2024-05-28 02:18 am W 6.0 8.9----30.01- 54.3 64.0----
2024-05-28 02:12 am W 6.0 8.9----30.01- 54.5 64.0----
2024-05-28 02:06 am W 6.0 8.0----30.01- 54.3 64.0----
2024-05-28 02:00 amWNW 5.1 7.0----30.01+0.00 54.3 64.0----
2024-05-28 01:54 am W 5.1 7.0----30.01- 54.3 64.2----
2024-05-28 01:48 am W 5.1 7.0----30.01- 54.7 64.2----
2024-05-28 01:42 am W 5.1 8.9----30.01- 54.5 64.2----
2024-05-28 01:36 amWSW 7.0 8.0----30.01- 54.7 64.2----
2024-05-28 01:30 amWSW 4.1 7.0----30.01- 54.7 64.2----
2024-05-28 01:24 amWSW 6.0 8.9----30.01- 54.7 64.2----
2024-05-28 01:18 amWSW 7.0 8.9----30.01- 54.7 64.2----
2024-05-28 01:12 amWSW 7.0 9.9----30.01- 54.7 64.4----
2024-05-28 01:06 amWSW 7.0 9.9----30.01- 54.9 64.4----
2024-05-28 01:00 am W 8.9 9.9----30.01-0.01 54.5 64.4----
2024-05-28 12:54 am W 7.0 8.9----30.01- 54.7 64.4----
2024-05-28 12:48 am W 7.0 8.9----30.01- 54.9 64.4----
2024-05-28 12:42 am W 7.0 8.9----30.01- 54.7 64.4----
2024-05-28 12:36 am W 6.0 8.9----30.01- 54.7 64.4----
2024-05-28 12:30 am W 7.0 9.9----30.01- 55.0 64.4----
2024-05-28 12:24 amWSW 7.0 11.1----30.01- 55.0 64.4----
2024-05-28 12:18 amWSW 8.0 12.0----30.01- 55.0 64.4----
2024-05-28 12:12 amWSW 8.9 12.0----30.01- 55.0 64.6----
2024-05-28 12:06 am W 8.9 11.1----30.01- 54.9 64.6----
2024-05-28 12:00 am W 8.0 9.9----30.02+0.00 54.9 64.6----
2024-05-27 11:54 pm W 8.9 11.1----30.02- 55.0 64.6----
2024-05-27 11:48 pm W 8.9 12.0----30.02- 55.2 64.6----
2024-05-27 11:42 pm W 9.9 11.1----30.02- 55.2 64.6----
2024-05-27 11:36 pm W 8.0 12.0----30.01- 55.0 64.6----
2024-05-27 11:30 pm W 8.9 11.1----30.02- 55.0 64.6----
2024-05-27 11:24 pm W 8.9 11.1----30.02- 55.2 64.4----
2024-05-27 11:18 pm W 8.0 12.0----30.02- 55.0 64.4----
2024-05-27 11:12 pm W 11.1 13.0----30.02- 55.0 64.4----
2024-05-27 11:06 pm W 9.9 12.0----30.02- 55.2 64.4----
2024-05-27 11:00 pm W 8.0 11.1----30.02+0.02 55.2 64.4----
2024-05-27 10:54 pmWSW 8.9 12.0----30.02- 55.2 64.4----
2024-05-27 10:48 pm W 8.0 11.1----30.02- 55.2 64.4----
2024-05-27 10:42 pm W 8.9 11.1----30.02- 55.4 64.4----
2024-05-27 10:36 pm W 8.0 9.9----30.02- 55.6 64.4----
2024-05-27 10:30 pm W 8.0 12.0----30.02- 55.6 64.4----
2024-05-27 10:24 pm W 7.0 11.1----30.02- 55.8 64.4----
2024-05-27 10:18 pm W 7.0 9.9----30.02- 55.8 64.4----
2024-05-27 10:12 pm W 8.0 12.0----30.02- 56.1 64.4----
2024-05-27 10:06 pm W 8.0 9.9----30.02- 56.1 64.4----
2024-05-27 10:00 pm W 8.9 9.9----30.02+0.04 55.8 64.4----
2024-05-27 09:54 pm W 7.0 9.9----30.02- 56.1 64.4----
2024-05-27 09:48 pmWSW 7.0 9.9----30.02- 56.3 64.4----
2024-05-27 09:42 pm W 7.0 11.1----30.02- 56.5 64.4----
2024-05-27 09:36 pm W 8.9 11.1----30.02- 56.3 64.6----
2024-05-27 09:30 pm W 8.9 11.1----30.02- 56.5 64.6----
2024-05-27 09:24 pm W 8.9 11.1----30.02- 56.8 64.6----
2024-05-27 09:18 pm W 8.9 9.9----30.02- 56.5 64.6----
2024-05-27 09:12 pm W 8.9 11.1----30.02- 57.4 64.6----
2024-05-27 09:06 pm W 8.0 9.9----30.02- 57.0 64.6----
2024-05-27 09:00 pm W 7.0 9.9----30.01+0.04 57.6 64.8----
2024-05-27 08:54 pm W 8.0 9.9----30.01- 57.7 64.8----
2024-05-27 08:48 pm W 8.0 11.1----30.01- 57.4 64.8----
2024-05-27 08:42 pmWSW 8.9 11.1----30.01- 58.3 64.8----
2024-05-27 08:36 pm W 7.0 8.9----30.01- 58.5 64.6----
2024-05-27 08:30 pm W 8.9 11.1----30.01- 57.9 64.8----
2024-05-27 08:24 pm W 7.0 9.9----30.01- 58.1 64.8----
2024-05-27 08:18 pmWSW 8.0 9.9----30.00- 58.6 64.8----
2024-05-27 08:12 pmWSW 6.0 8.9----30.00- 59.4 64.8----
2024-05-27 08:06 pm W 8.9 11.1----30.00- 58.6 64.8----
2024-05-27 08:00 pm W 8.9 9.9----30.00+0.03 59.2 64.8----
2024-05-27 07:54 pm W 8.9 9.9----30.00- 59.4 64.8----
2024-05-27 07:48 pmWSW 8.0 11.1----29.99- 61.2 64.6----
2024-05-27 07:42 pmWSW 6.0 8.0----29.99- 61.2 64.6----
2024-05-27 07:36 pm SW 7.0 8.9----29.99- 61.3 64.6----
2024-05-27 07:30 pmWSW 6.0 8.0----29.99- 61.5 64.6----
2024-05-27 07:24 pm SW 5.1 8.9----29.99- 61.7 64.6----
2024-05-27 07:18 pm SW 7.0 9.9----29.99- 61.5 64.6----
2024-05-27 07:12 pm SW 9.9 13.0----29.99- 61.7 64.6----
2024-05-27 07:06 pmSSW 9.9 13.0----29.99- 61.7 64.6----
2024-05-27 07:00 pmSSW 11.1 13.0----29.98+0.02 62.4 64.6----
2024-05-27 06:54 pmSSW 13.0 15.0----29.98- 62.8 64.6----
2024-05-27 06:48 pm SW 12.0 14.0----29.98- 63.1 64.6----
2024-05-27 06:42 pm SW 11.1 13.0----29.98- 63.5 64.6----
2024-05-27 06:36 pm SW 11.1 14.0----29.98- 64.0 64.6----
2024-05-27 06:30 pm SW 12.0 14.0----29.98- 64.4 64.6----
2024-05-27 06:24 pmSSW 13.0 14.0----29.98- 64.8 64.6----
2024-05-27 06:18 pm SW 12.0 15.0----29.98- 65.5 64.6----
2024-05-27 06:12 pm SW 11.1 13.0----29.98- 66.2 64.6----
2024-05-27 06:06 pm SW 11.1 13.0----29.97- 66.7 64.6----
2024-05-27 06:00 pm SW 9.9 13.0----29.97+0.00 67.3 64.8----
2024-05-27 05:54 pm SW 11.1 13.0----29.97- 67.5 64.8----
2024-05-27 05:48 pm SW 11.1 12.0----29.97- 67.6 64.8----
2024-05-27 05:42 pm SW 9.9 13.0----29.97- 68.2 64.8----
2024-05-27 05:36 pm SW 11.1 14.0----29.97- 68.0 64.6----
2024-05-27 05:30 pm SW 11.1 13.0----29.97- 68.2 64.6----
2024-05-27 05:24 pm SW 11.1 14.0----29.97- 68.0 64.6----
2024-05-27 05:18 pmSSW 12.0 15.0----29.97- 68.0 64.8----
2024-05-27 05:12 pm SW 12.0 15.0----29.97- 68.0 64.8----
2024-05-27 05:06 pm SW 11.1 15.0----29.97- 68.4 64.8----
2024-05-27 05:00 pm SW 12.0 15.9----29.97- 68.5 64.8----
2024-05-27 04:54 pm SW 11.1 14.0----29.97- 68.9 64.9----
2024-05-27 04:48 pm SW 11.1 14.0----29.97- 68.9 64.9----
2024-05-27 04:42 pm SW 12.0 15.9----29.97- 69.3 64.9----
2024-05-27 04:36 pm SW 14.0 15.0----29.97- 69.3 65.1----
2024-05-27 04:30 pm SW 11.1 15.9----29.97- 69.6 65.1----
2024-05-27 04:24 pm SW 12.0 14.0----29.96- 69.8 65.1----
2024-05-27 04:18 pm SW 11.1 14.0----29.96- 70.2 65.1----
2024-05-27 04:12 pm SW 9.9 13.0----29.96- 70.5 65.1----
2024-05-27 04:06 pm SW 9.9 13.0----29.97- 70.7 65.3----
2024-05-27 04:00 pm SW 11.1 13.0----29.97-0.04 70.9 65.3----
2024-05-27 03:54 pm SW 8.9 13.0----29.97- 71.1 65.3----
2024-05-27 03:48 pm SW 9.9 12.0----29.97-- 65.5----
2024-05-27 03:42 pm SW 9.9 12.0----29.97-- 65.7----
2024-05-27 03:36 pm SW 9.9 13.0----29.97-- 65.7----
2024-05-27 03:30 pm SW 11.1 13.0----29.97- 70.7 65.7----
2024-05-27 03:24 pm SW 11.1 14.0----29.97- 70.7 65.8----
2024-05-27 03:18 pm SW 11.1 15.9----29.98- 70.9 65.8----
2024-05-27 03:12 pm SW 12.0 14.0----29.98- 71.2 66.0----
2024-05-27 03:06 pm SW 9.9 13.0----29.98- 71.8 66.0----
2024-05-27 03:00 pm SW 11.1 13.0----29.98-0.03 72.0 66.0----
2024-05-27 02:54 pmWSW 9.9 13.0----29.98- 72.1 66.0----
2024-05-27 02:48 pmWSW 11.1 13.0----29.98- 72.1 66.0----
2024-05-27 02:42 pmWSW 12.0 14.0----29.98- 71.8 66.2----
2024-05-27 02:36 pmWSW 11.1 13.0----29.98- 71.8 66.2----
2024-05-27 02:30 pmWSW 9.9 13.0----29.98- 72.0 66.4----
2024-05-27 02:24 pmWSW 8.9 12.0----29.98- 71.8 66.7----
2024-05-27 02:18 pm W 9.9 11.1----29.98- 71.6 66.7----
2024-05-27 02:12 pmWSW 11.1 13.0----29.98- 71.6 66.7----
2024-05-27 02:06 pm W 9.9 13.0----29.98- 72.0 66.7----
2024-05-27 02:00 pm--------- 71.2 66.6----
2024-05-27 01:54 pm--------- 71.1 66.6----
2024-05-27 01:48 pm W 9.9 12.0----29.99- 70.9 66.7----
2024-05-27 01:42 pm W 8.9 9.9----29.99- 70.5 66.6----
2024-05-27 01:36 pm W 8.0 9.9----29.99- 70.0 66.6----
2024-05-27 01:30 pm W 8.9 12.0----29.99-- 66.6----
2024-05-27 01:24 pm W 9.9 12.0----30.00-- 66.6----
2024-05-27 01:18 pm W 12.0 13.0----30.00- 69.1 66.6----
2024-05-27 01:12 pm W 11.1 13.0----30.00- 68.5 66.6----
2024-05-27 01:06 pm W 12.0 14.0----30.00- 68.4 66.6----
2024-05-27 01:00 pm W 13.0 14.0----30.00-0.03 68.0 66.4----
2024-05-27 12:54 pm W 13.0 14.0----30.01- 67.8 66.4----
2024-05-27 12:48 pm W 13.0 15.0----30.01- 67.8 66.2----
2024-05-27 12:42 pm W 14.0 15.0----30.01- 67.8 66.0----
2024-05-27 12:36 pm W 14.0 15.0----30.01- 67.8 66.0----
2024-05-27 12:30 pm-------30.00- 68.0 65.8----
2024-05-27 12:24 pm-------30.01- 67.3 65.8----
2024-05-27 12:18 pmWNW 15.0 17.1----30.01- 67.3 65.7----
2024-05-27 12:12 pmWNW 15.0 17.1----30.01- 67.3 65.5----
2024-05-27 12:06 pmWNW 14.0 15.9----30.01- 67.3 65.5----
2024-05-27 12:00 pmWNW 13.0 15.0----30.01-0.02 67.5 65.3----
2024-05-27 11:54 amWNW 13.0 15.0----30.01- 67.1 65.3----
2024-05-27 11:48 amWNW 11.1 15.9------ 67.1 65.1----
2024-05-27 11:42 amWNW 12.0 15.0------ 66.9 65.1----
2024-05-27 11:36 amWNW 13.0 15.0------ 66.9 64.9----
2024-05-27 11:30 amWNW 13.0 15.0----30.01- 66.7 64.9----
2024-05-27 11:24 amWNW 13.0 15.0----30.01- 66.9 64.9----
2024-05-27 11:18 amWNW 13.0 15.0----30.01- 66.4 64.9----
2024-05-27 11:12 amWNW 12.0 13.0----30.01- 66.7 64.8----
2024-05-27 11:06 amWNW 12.0 12.0----30.02- 66.6 64.8----
2024-05-27 11:00 am NW 9.9 12.0----30.02-0.01 66.4 64.8----
2024-05-27 10:54 amWNW 11.1 12.0----30.02- 66.2 64.8----
2024-05-27 10:48 amWNW 9.9 11.1----30.02- 66.0 64.8----
2024-05-27 10:42 amWNW 9.9 11.1----30.02- 65.8 64.6----
2024-05-27 10:36 amWNW 9.9 11.1----30.02- 65.7 64.6----
2024-05-27 10:30 amWNW 8.9 11.1----30.03- 65.5 64.6----
2024-05-27 10:24 amWNW 8.9 9.9----30.03- 65.3 64.6----
2024-05-27 10:18 amWNW 8.0 8.9----30.03- 65.3 64.4----
2024-05-27 10:12 amWNW 8.0 9.9----30.03- 65.1 64.4----
2024-05-27 10:06 amWNW 7.0 8.9----30.03- 64.9 64.4----
2024-05-27 10:00 amWNW 8.0 8.9----30.03+0.01 64.6 64.4----
2024-05-27 09:54 amWNW 7.0 8.9----30.03- 64.4 64.2----
2024-05-27 09:48 am NW 7.0 8.0----30.03-- 64.2----
2024-05-27 09:42 am NW 7.0 8.9----30.03-- 64.2----
2024-05-27 09:36 am NW 7.0 8.9----30.03-- 64.2----
2024-05-27 09:30 am NW 8.0 9.9----30.03- 63.0 64.2----
2024-05-27 09:24 amWNW 7.0 8.9----30.03- 62.8 64.0----
2024-05-27 09:18 amWNW 8.0 8.9----30.03- 62.6 64.0----
2024-05-27 09:12 amWNW 6.0 7.0----30.03- 62.6 64.0----
2024-05-27 09:06 am NW 6.0 7.0----30.03- 62.4 64.0----
2024-05-27 09:00 amWNW 6.0 7.0----30.03+0.02 62.1 64.0----
2024-05-27 08:54 amWNW 6.0 8.0----30.03- 61.9 64.0----